SL-8 DEB, 1477

Orbit data source: Space-Track

SL-8 DEB, 1477 is space debris in LEO originally from a launch on Mon, 15 Mar 1965 UTC launched from the Tyuratam Missile And Space Complex (TTMTR). Debris objects in space refer to the collection of defunct objects orbiting the Earth. Examples of debris include non-operational satellites, rocket bodies, and fragments generated from explosions, collisions, or faulty payload assembly.

Loading next visibility...
Identifier
1477, 1965-020BB
Orbit
LEO
Country
Flag of CISCIS
Related business
Manufacturer
Unknown
Mission
Spacecraft
Bus & Motor
Unknown
Mass
Unknown
Launch date (UTC)
1965-03-15 (61 years ago)
Launch vehicle
Unknown
Launch site
Tyuratam Missile And Space Complex (TTMTR)
Object type
Payload
Rocket body
Debris
Shape & HBR
Unknown shape, 0.2 m
Radar Cross Section
Medium (>0.1 m² and <1 m²)

Expand to show TLE details & history
Last TLE update: 1 day ago

TLE from 1 day ago
0 SL-8 DEB
1 01477U 65020BB  26123.17133288 -.00000268  00000-0 -23552-3 0  9997
2 01477  55.4959  25.1488 0586603 250.0985 103.5841 12.99628353872369
Epoch: 2026-05-03T04:06Z
TLE epoch observation values (Epoch: 2026-05-03T04:06:43.160Z)
Latitude
0.00002°
Longitude
102.39027°
Altitude
1,394.146 km
Speed
7.103 km/s
True Right ascension
01h 40m 35s
True Declination
0° 00' 00"
Sunlit
Object was in daylight at epoch
Visualization orbit readout
Latitude
Unknown
Longitude
Unknown
Altitude
Unknown
Speed
Unknown
Apparent Right ascension
Unknown
Apparent Declination
Unknown
Sunlit
N/A
Visualization observer readout
Local Sidereal Time
17:11:07
Azimuth
Unknown
Elevation
Unknown
Doppler factor
Unknown
Orbital elements
Apogee altitude
1,711.701 km
Perigee altitude
815.186 km
Semi-major axis
7,641.58 km
Eccentricity
0.05866
Inclination
55.4959°
RAAN
25.1488°
Arg. of periapsis
250.0985°
True anomaly
109.99397°
Mean anomaly
103.5841°
Eccentric anomaly
106.80161°
Mean motion
3.24914 °/min
Orbital period
110.8 mins
BSTAR
-0.00023552
Loading maneuver chart data...
Computing Atmospheric mass density...
Loading historical data...
Loading historical data...
Loading historical data...
Loading historical data...
Loading historical data...
Loading historical data...
Loading historical data...

Documentation

Showing up to 5 results
|